Location: Fouquenies
(49.4624°N, 2.0492°E)
Time: 22:57:09
(UTC+00:00)

Okean-O - Pass Details

Date: 03 February 2023
Orbit: 637 x 638 km, 98.1° (Epoch: 01 April)

Event Time Altitude Azimuth Distance (km) Brightness Sun altitude
Exits shadow 19:26:10 25° 1° (N) 1,301 4.2 -25.4°
Drops below altitude 10° 19:28:05 10° 353° (N) 2,043 5.3 -25.7°
Sets 19:30:20 0° 350° (N) 2,957 6.2 -26.1°
